CW2434 Weather Reports


Display with metric or nautical units.
time (UTC)temp
F
wind
direction
speed
MPH
gust
MPH
rain 1hr
in
rain 24hr
in
rain mn
in
humidity
%
barometer
mb
20260903194601 77 0 0.0 4.0 0.00 0.20 0.20 82 1013.0
20260903193056 77 277 0.0 3.0 0.00 0.20 0.20 83 1013.0
20260903191602 76 0 0.0 2.0 0.00 0.20 0.20 84 1013.2
20260903190058 77 0 0.0 0.0 0.00 0.20 0.20 84 1013.2
20260903184601 77 0 0.0 1.0 0.00 0.27 0.20 84 1013.3
20260903183100 77 0 0.0 0.0 0.00 0.27 0.20 82 1013.4
20260903181601 77 228 3.0 6.0 0.00 0.27 0.20 82 1013.6
20260903180057 76 0 0.0 3.0 0.00 0.27 0.20 82 1013.5
20260903174601 75 264 0.0 4.0 0.00 0.27 0.20 84 1013.6
20260903173052 75 264 0.0 3.0 0.00 0.27 0.20 85 1013.7
20260903171600 75 276 2.0 8.0 0.00 0.27 0.20 82 1014.0
20260903170103 76 272 3.0 10.0 0.00 0.27 0.20 82 1014.1
20260903164602 75 244 4.0 8.0 0.00 0.27 0.20 84 1014.3
20260903163053 74 264 3.0 9.0 0.00 0.27 0.20 85 1014.4
20260903161556 73 267 4.0 10.0 0.00 0.27 0.20 86 1014.4
20260903160055 73 275 4.0 10.0 0.00 0.27 0.20 87 1014.5
20260903154559 73 229 3.0 9.0 0.00 0.27 0.20 86 1015.0
20260903153112 72 265 5.0 10.0 0.00 0.27 0.20 88 1014.7
20260903151612 72 248 5.0 9.0 0.00 0.27 0.20 88 1015.0
20260903150104 71 257 5.0 12.0 0.00 0.27 0.20 89 1015.1
20260903144556 71 244 5.0 11.0 0.00 0.27 0.20 90 1014.9
20260903143104 70 258 4.0 10.0 0.00 0.27 0.20 90 1014.9
20260903141558 69 221 3.0 10.0 0.00 0.27 0.20 93 1014.8
20260903140057 68 0 2.0 7.0 0.00 0.27 0.20 94 1014.7
20260903134606 68 199 2.0 10.0 0.00 0.27 0.20 95 1014.8
20260903133104 67 226 0.0 4.0 0.00 0.27 0.20 96 1014.9
20260903131558 67 0 1.0 5.0 0.00 0.27 0.20 96 1014.8
20260903124556 67 0 0.0 1.0 0.00 0.27 0.20 96 1015.4
20260903123105 66 0 0.0 0.0 0.00 0.27 0.20 96 1015.6
20260903121553 66 0 0.0 4.0 0.00 0.27 0.20 97 1015.3
20260903120100 66 0 0.0 4.0 0.00 0.27 0.20 96 1015.4
20260903114556 65 0 0.0 3.0 0.00 0.27 0.20 96 1015.7
20260903113056 65 0 0.0 0.0 0.00 0.27 0.20 96 1016.0
20260903111608 65 0 0.0 0.0 0.00 0.27 0.20 96 1015.9
20260903110100 65 0 0.0 2.0 0.00 0.27 0.20 96 1015.8
20260903104624 65 0 0.0 0.0 0.00 0.27 0.20 96 1016.0
20260903103106 65 0 0.0 0.0 0.00 0.27 0.20 96 1015.8
20260903101600 65 0 0.0 0.0 0.00 0.27 0.20 96 1015.6
20260903100104 65 0 0.0 0.0 0.01 0.27 0.20 96 1015.5
20260903094556 65 0 0.0 3.0 0.01 0.27 0.20 96 1015.2
20260903093109 65 0 0.0 0.0 0.01 0.27 0.20 96 1015.2
20260903091609 65 0 0.0 0.0 0.02 0.27 0.20 96 1015.0
20260903090101 65 0 0.0 0.0 0.01 0.26 0.19 96 1015.5
20260903084558 65 0 0.0 0.0 0.02 0.26 0.19 96 1015.8
20260903083104 65 0 0.0 3.0 0.01 0.25 0.18 96 1015.7
20260903081619 65 87 0.0 4.0 0.01 0.25 0.18 96 1015.4
20260903080059 65 195 0.0 7.0 0.01 0.25 0.18 96 1015.9
20260903074556 65 0 0.0 7.0 0.00 0.24 0.17 96 1015.8
20260903073104 65 0 1.0 5.0 0.00 0.24 0.17 96 1015.7
20260903071600 65 0 0.0 3.0 0.00 0.24 0.17 96 1015.9
20260903070057 65 160 0.0 4.0 0.00 0.24 0.17 96 1015.9
20260903064554 65 0 0.0 2.0 0.00 0.24 0.17 96 1016.2
20260903063107 65 0 0.0 3.0 0.02 0.24 0.17 96 1016.2
20260903061558 65 0 0.0 4.0 0.05 0.24 0.17 95 1016.1
20260903060104 64 214 0.0 6.0 0.08 0.24 0.17 95 1015.6
20260903054602 64 0 0.0 0.0 0.11 0.24 0.17 95 1016.6
20260903053101 64 0 0.0 9.0 0.13 0.22 0.15 95 1016.8
20260903051601 64 0 1.0 9.0 0.12 0.19 0.12 95 1016.9
20260903050054 64 0 0.0 5.0 0.09 0.16 0.09 95 1018.0
20260903044557 64 0 0.0 2.0 0.06 0.13 0.06 94 1018.3
20260903043057 65 0 0.0 8.0 0.02 0.09 0.02 93 1018.7
20260903041601 65 294 0.0 0.0 0.00 0.07 0.00 93 1019.2
20260903034604 64 0 0.0 7.0 0.00 0.07 0.07 92 1018.4
20260903033105 64 0 0.0 3.0 0.00 0.07 0.07 92 1018.5
20260903031555 64 0 0.0 5.0 0.00 0.07 0.07 92 1018.2
20260903030129 64 0 0.0 6.0 0.00 0.07 0.07 91 1018.1
20260903024559 64 0 0.0 5.0 0.00 0.07 0.07 91 1018.5
20260903023058 64 0 0.0 4.0 0.00 0.07 0.07 91 1018.7
20260903021556 64 0 0.0 5.0 0.00 0.07 0.07 91 1019.5
20260903020107 64 0 0.0 4.0 0.00 0.07 0.07 90 1019.7
20260903014557 64 0 0.0 4.0 0.00 0.07 0.07 90 1019.5
20260903013056 64 0 0.0 5.0 0.00 0.07 0.07 90 1019.4
20260903011605 64 0 0.0 5.0 0.00 0.07 0.07 91 1019.3
20260903010100 64 0 0.0 4.0 0.00 0.07 0.07 91 1019.4
20260903004600 64 0 0.0 5.0 0.00 0.07 0.07 90 1019.2
20260903003055 64 211 0.0 5.0 0.00 0.07 0.07 89 1019.2
20260903001610 64 0 0.0 5.0 0.00 0.07 0.07 89 1019.4
20260903000110 64 0 0.0 7.0 0.00 0.07 0.07 88 1019.4
20260902234559 64 195 0.0 8.0 0.00 0.10 0.07 88 1018.9
20260902233102 65 0 2.0 10.0 0.00 0.10 0.07 88 1019.0
20260902231604 65 100 2.0 12.0 0.00 0.10 0.07 88 1019.3
20260902224558 64 0 4.0 10.0 0.00 0.42 0.07 89 1019.5
20260902223051 65 148 1.0 7.0 0.00 0.42 0.07 88 1020.0
20260902221613 65 154 1.0 6.0 0.00 0.42 0.07 87 1020.2
20260902220108 65 182 0.0 5.0 0.00 0.42 0.07 87 1020.5
20260902214554 65 182 1.0 8.0 0.00 0.46 0.07 85 1020.2
20260902213059 65 121 2.0 6.0 0.00 0.46 0.07 85 1020.0
20260902211600 65 131 3.0 10.0 0.00 0.46 0.07 86 1020.0
20260902210053 65 181 1.0 7.0 0.00 0.46 0.07 85 1020.2
20260902204612 65 169 4.0 9.0 0.00 0.46 0.07 85 1020.3
20260902203101 65 109 1.0 10.0 0.00 0.46 0.07 84 1019.9
20260902201604 64 147 3.0 8.0 0.00 0.46 0.07 83 1019.7
20260902200100 64 147 3.0 8.0 0.00 0.46 0.07 84 1020.1